风云四号A星 (FENGYUN 4A)

导读

FENGYUN 4A(风云四号A星)是中国于2016年12月10日发射的新一代静止轨道气象卫星,是中国新一代静止轨道气象卫星的首发星。它搭载了多通道扫描成像辐射计、干涉式红外探测仪、闪电成像仪和空间天气监测仪器,大幅提升了中国气象观测的时空分辨率和精准度,可为气象预报、气候监测、灾害预警等提供关键数据支撑,推动了中国气象事业的现代化发展,也为全球气象观测贡献了重要力量。

Basic Information
目录编号:
41882
目录名称:
FENGYUN 4A
国际标识:
2016-077A
轨道中心:
EARTH
卫星名称:
风云四号A星
卫星全名:
风云四号A星 (FENGYUN 4A)
卫星状态:
在轨 (已飞行3472 天)
发射日期:
2016-12-10 UTC
国别 :
中国 (CN)
星等 :
--
Orbit Information
数据来源 国际轨道数据 AOE轨道数据
星历时间 2026-06-13T04:37:53+0800
4小时前
查看轨道信息
2026-06-13T01:00:00+0800
8小时前
查看轨道信息
半长轴 42164.953km 42164.953km
偏心率 0.0008612 0.0008544
轨道倾角 2.310° 2.310°
近地点辐角 152.234° 152.309°
升交点赤经 80.344° 80.344°
平近点角 101.862° 47.166°
近地点 35750.503km 35750.79km
远地点 35823.129km 35822.842km
周期 1436.108分钟 1436.108分钟
每日圈数 1.00271 1.00271
Detailed Information
平衡模式:
三轴稳定
覆盖范围:
亚洲
运营商:
夏威夷科学技术博物馆
运营商所在国:
美国
制造商(研发单位):
上海航天技术研究院
制造商所在国:
中国
使用方式:
暂无
Satellite Introduction
风云气象卫星系列(FENGYUN Meteorological Satellite)是中国于1977年开始研制的气象卫星系列,目前发射了风云一号、风云二号、风云三号、风云四号等卫星系列。其中,风云二号系列、风云四号系列为风云静止卫星,风云一号系列、风云三号系列为风云极轨卫星。该卫星仍在工作。
2D Orbit Map
3D Orbit Map
Orbit Altitude Analysis Chart
Orbit Inclination Analysis Chart
Orbit Comprehensive Analysis Chart
View Comprehensive Chart